Location: Del Oro Observatory
(38.3044°N, 104.8119°W)
Time: 23:08:04
(UTC-07:00)

Cosmos 1602 Rocket - Visible Passes

Search period start: 21 February 2017 00:00
Search period end: 03 March 2017 00:00
Orbit: 603 x 634 km, 82.5° (Epoch: 21 February)

Date Brightness Start Highest point End Pass type
(mag) Time Alt. Az. Time Alt. Az. Time Alt. Az.
26 Feb 6.2 20:18:13 10° N 20:18:25 11° N 20:18:25 11° N visible
27 Feb 6.2 20:35:33 10° NNW 20:36:16 14° NNW 20:36:16 14° NNW visible
28 Feb 5.5 19:15:49 10° NNE 19:17:01 15° NE 19:17:01 15° NE visible
28 Feb 6.3 20:53:13 10° NNW 20:54:13 15° NW 20:54:13 15° NW visible
01 Mar 4.7 19:32:29 10° N 19:35:05 29° NE 19:35:05 29° NE visible
01 Mar 6.6 21:11:27 10° NW 21:12:17 13° WNW 21:12:17 13° WNW visible
02 Mar 3.7 19:49:33 10° N 19:53:17 60° NNE 19:53:17 60° NNE visible
